When you browse on this site, cookies collect data to enhance your experience and personalize the content and advertising you see.
Visit our Privacy Policy to learn more. By continuing to use the site, you agree to this use of cookies and data.
EN

Hourly Weather Monterey Park

Today, 14 August, Friday

Time Temperature Precipitation Wind Pressure Humidity
00:00 +30°C° 0 mm 1 mps 749 mmHg 42%
01:00 +29°C° 0 mm 1 mps 748 mmHg 44%
02:00 +29°C° 0 mm 1 mps 748 mmHg 44%
03:00 +29°C° 0 mm 1 mps 748 mmHg 44%
04:00 +28°C° 0 mm 1 mps 749 mmHg 45%
05:00 +29°C° 0 mm 1 mps 749 mmHg 44%
06:00 +30°C° 0 mm 1 mps 749 mmHg 42%
07:00 +30°C° 0 mm 1 mps 749 mmHg 40%
08:00 +32°C° 0 mm 2 mps 750 mmHg 37%
09:00 +34°C° 0 mm 2 mps 750 mmHg 34%
10:00 +36°C° 0 mm 3 mps 750 mmHg 30%
11:00 +37°C° 0 mm 3 mps 749 mmHg 29%
12:00 +38°C° 0 mm 3 mps 749 mmHg 27%
13:00 +39°C° 0 mm 3 mps 749 mmHg 25%
14:00 +39°C° 0 mm 3 mps 748 mmHg 26%
15:00 +40°C° 0 mm 4 mps 748 mmHg 26%
16:00 +40°C° 0 mm 4 mps 748 mmHg 27%
17:00 +37°C° 0 mm 3 mps 748 mmHg 30%
18:00 +36°C° 0 mm 2 mps 748 mmHg 33%
19:00 +34°C° 0 mm 2 mps 748 mmHg 35%
20:00 +34°C° 0 mm 2 mps 748 mmHg 36%
21:00 +33°C° 0 mm 1 mps 748 mmHg 37%
22:00 +32°C° 0 mm 1 mps 748 mmHg 38%
23:00 +32°C° 0 mm 1 mps 748 mmHg 37%

Tomorrow, 15 August, Saturday

Time Temperature Precipitation Wind Pressure Humidity
00:00 +32°C° 0 mm 1 mps 748 mmHg 37%
01:00 +32°C° 0 mm 1 mps 747 mmHg 36%
02:00 +32°C° 0 mm 1 mps 747 mmHg 37%
03:00 +31°C° 0 mm 1 mps 747 mmHg 38%
04:00 +31°C° 0 mm 1 mps 747 mmHg 39%
05:00 +32°C° 0.1 mm 1 mps 748 mmHg 37%
06:00 +33°C° 0.1 mm 1 mps 748 mmHg 35%
07:00 +34°C° 0.1 mm 1 mps 748 mmHg 34%
08:00 +35°C° 0.2 mm 1 mps 748 mmHg 32%
09:00 +36°C° 0.2 mm 1 mps 748 mmHg 29%
10:00 +39°C° 0.2 mm 2 mps 749 mmHg 27%
11:00 +39°C° 0.1 mm 2 mps 748 mmHg 26%
12:00 +40°C° 0.1 mm 3 mps 748 mmHg 25%
13:00 +42°C° 0.1 mm 3 mps 748 mmHg 24%
14:00 +40°C° 0 mm 3 mps 747 mmHg 24%
15:00 +40°C° 0 mm 3 mps 747 mmHg 25%
16:00 +40°C° 0 mm 3 mps 747 mmHg 25%
17:00 +37°C° 0 mm 3 mps 747 mmHg 31%
18:00 +35°C° 0 mm 3 mps 747 mmHg 37%
19:00 +33°C° 0 mm 3 mps 748 mmHg 43%
20:00 +31°C° 0.1 mm 3 mps 748 mmHg 44%
21:00 +31°C° 0.1 mm 2 mps 748 mmHg 45%
22:00 +31°C° 0.1 mm 2 mps 748 mmHg 47%
23:00 +30°C° 0.1 mm 2 mps 748 mmHg 48%

Day after tomorrow, 16 August, Sunday

Time Temperature Precipitation Wind Pressure Humidity
00:00 +30°C° 0.1 mm 2 mps 748 mmHg 50%
01:00 +29°C° 0.1 mm 2 mps 748 mmHg 51%
02:00 +29°C° 0 mm 2 mps 748 mmHg 53%
03:00 +29°C° 0 mm 2 mps 748 mmHg 54%
04:00 +28°C° 0 mm 1 mps 748 mmHg 56%
05:00 +29°C° 0 mm 1 mps 748 mmHg 54%
06:00 +29°C° 0 mm 1 mps 749 mmHg 53%
07:00 +30°C° 0 mm 1 mps 749 mmHg 52%
08:00 +31°C° 0 mm 2 mps 749 mmHg 48%
09:00 +32°C° 0 mm 2 mps 749 mmHg 44%
10:00 +35°C° 0 mm 3 mps 749 mmHg 40%
11:00 +35°C° 0 mm 3 mps 749 mmHg 40%
12:00 +36°C° 0 mm 3 mps 749 mmHg 39%
13:00 +36°C° 0 mm 3 mps 749 mmHg 38%
14:00 +36°C° 0 mm 3 mps 748 mmHg 38%
15:00 +36°C° 0 mm 3 mps 748 mmHg 38%
16:00 +36°C° 0 mm 3 mps 747 mmHg 39%
17:00 +34°C° 0 mm 3 mps 748 mmHg 44%
18:00 +31°C° 0 mm 2 mps 748 mmHg 50%
19:00 +29°C° 0 mm 2 mps 749 mmHg 56%
20:00 +29°C° 0 mm 2 mps 749 mmHg 56%
21:00 +29°C° 0 mm 1 mps 749 mmHg 56%
22:00 +29°C° 0 mm 1 mps 749 mmHg 56%
23:00 +29°C° 0 mm 1 mps 749 mmHg 56%

17 August, Monday

Time Temperature Precipitation Wind Pressure Humidity
00:00 +28°C° 0 mm 1 mps 749 mmHg 56%
01:00 +28°C° 0 mm 1 mps 749 mmHg 56%
02:00 +28°C° 0 mm 1 mps 749 mmHg 57%
03:00 +28°C° 0 mm 1 mps 749 mmHg 58%
04:00 +27°C° 0 mm 1 mps 749 mmHg 58%
05:00 +28°C° 0 mm 1 mps 749 mmHg 55%
06:00 +27°C° 0 mm 0 mps 749 mmHg 52%
07:00 +28°C° 0 mm 0 mps 750 mmHg 49%
08:00 +32°C° 0 mm 1 mps 750 mmHg 45%
09:00 +35°C° 0 mm 2 mps 750 mmHg 40%
10:00 +36°C° 0 mm 2 mps 749 mmHg 36%
11:00 +37°C° 0 mm 3 mps 749 mmHg 35%
12:00 +37°C° 0 mm 3 mps 749 mmHg 34%
13:00 +38°C° 0 mm 3 mps 749 mmHg 32%
14:00 +38°C° 0 mm 3 mps 748 mmHg 32%
15:00 +38°C° 0 mm 3 mps 748 mmHg 32%
16:00 +38°C° 0 mm 3 mps 747 mmHg 32%
17:00 +36°C° 0 mm 3 mps 748 mmHg 36%
18:00 +34°C° 0 mm 2 mps 748 mmHg 40%
19:00 +31°C° 0 mm 2 mps 748 mmHg 45%
20:00 +31°C° 0 mm 2 mps 748 mmHg 46%
21:00 +30°C° 0 mm 2 mps 749 mmHg 48%
22:00 +30°C° 0 mm 2 mps 749 mmHg 49%
23:00 +30°C° 0 mm 1 mps 749 mmHg 48%

18 August, Tuesday

Time Temperature Precipitation Wind Pressure Humidity
00:00 +30°C° 0 mm 1 mps 749 mmHg 47%
01:00 +30°C° 0 mm 1 mps 749 mmHg 46%
02:00 +30°C° 0 mm 1 mps 749 mmHg 46%
03:00 +30°C° 0 mm 1 mps 749 mmHg 46%
04:00 +30°C° 0 mm 1 mps 749 mmHg 45%
05:00 +31°C° 0 mm 1 mps 749 mmHg 45%
06:00 +31°C° 0 mm 1 mps 749 mmHg 44%
07:00 +32°C° 0 mm 1 mps 749 mmHg 43%
08:00 +34°C° 0 mm 1 mps 749 mmHg 39%
09:00 +36°C° 0 mm 1 mps 749 mmHg 34%
10:00 +37°C° 0 mm 1 mps 749 mmHg 30%
11:00 +39°C° 0 mm 2 mps 749 mmHg 28%
12:00 +40°C° 0 mm 3 mps 748 mmHg 27%
13:00 +42°C° 0 mm 4 mps 748 mmHg 26%
14:00 +42°C° 0.2 mm 3 mps 748 mmHg 26%
15:00 +42°C° 0.2 mm 3 mps 747 mmHg 26%
16:00 +42°C° 0.2 mm 3 mps 747 mmHg 26%
17:00 +39°C° 0 mm 3 mps 747 mmHg 30%
18:00 +37°C° 0 mm 2 mps 747 mmHg 33%
19:00 +35°C° 0 mm 2 mps 747 mmHg 37%
20:00 +35°C° 0 mm 2 mps 747 mmHg 38%
21:00 +33°C° 0 mm 1 mps 747 mmHg 39%
22:00 +33°C° 0 mm 1 mps 748 mmHg 40%
23:00 +32°C° 0 mm 1 mps 747 mmHg 40%

19 August, Wednesday

Time Temperature Precipitation Wind Pressure Humidity
00:00 +32°C° 0 mm 1 mps 747 mmHg 40%
01:00 +32°C° 0 mm 1 mps 747 mmHg 41%
02:00 +32°C° 0 mm 1 mps 747 mmHg 41%
03:00 +32°C° 0 mm 1 mps 747 mmHg 41%
04:00 +32°C° 0 mm 1 mps 747 mmHg 41%
05:00 +32°C° 0 mm 1 mps 747 mmHg 39%
06:00 +31°C° 0 mm 0 mps 747 mmHg 37%
07:00 +32°C° 0 mm 0 mps 747 mmHg 34%
08:00 +36°C° 0 mm 1 mps 747 mmHg 31%
09:00 +39°C° 0 mm 1 mps 747 mmHg 27%
10:00 +41°C° 0 mm 2 mps 747 mmHg 24%
11:00 +42°C° 0 mm 3 mps 746 mmHg 23%
12:00 +43°C° 0 mm 3 mps 746 mmHg 22%
13:00 +44°C° 0 mm 4 mps 745 mmHg 21%
14:00 +43°C° 0 mm 4 mps 745 mmHg 22%
15:00 +42°C° 0 mm 4 mps 745 mmHg 23%
16:00 +42°C° 0 mm 3 mps 744 mmHg 24%
17:00 +39°C° 0 mm 3 mps 744 mmHg 27%
18:00 +37°C° 0 mm 2 mps 745 mmHg 30%
19:00 +35°C° 0 mm 2 mps 745 mmHg 33%
20:00 +35°C° 0 mm 2 mps 745 mmHg 34%
21:00 +34°C° 0 mm 2 mps 745 mmHg 35%
22:00 +32°C° 0 mm 2 mps 745 mmHg 36%
23:00 +32°C° 0 mm 2 mps 745 mmHg 37%
Show more